Stündliche Wetter Homel's'ke

Heute, 21 Juni, Montag

Zeit Temperatur Niederschläge Wind Luftdruck Luftfeuchtigkeit
00:00 +19°C° 0 mm 2 m/S 745 mmHg 88%
01:00 +19°C° 0 mm 2 m/S 745 mmHg 89%
02:00 +19°C° 0 mm 2 m/S 745 mmHg 90%
03:00 +19°C° 0 mm 2 m/S 745 mmHg 90%
04:00 +20°C° 0 mm 2 m/S 745 mmHg 89%
05:00 +21°C° 0 mm 1 m/S 745 mmHg 89%
06:00 +23°C° 0 mm 2 m/S 745 mmHg 82%
07:00 +24°C° 0 mm 2 m/S 745 mmHg 76%
08:00 +26°C° 0 mm 2 m/S 745 mmHg 69%
09:00 +27°C° 0 mm 2 m/S 745 mmHg 65%
10:00 +29°C° 0 mm 2 m/S 745 mmHg 61%
11:00 +30°C° 0 mm 3 m/S 745 mmHg 57%
12:00 +31°C° 0 mm 3 m/S 745 mmHg 55%
13:00 +31°C° 0 mm 3 m/S 745 mmHg 53%
14:00 +33°C° 0 mm 3 m/S 745 mmHg 51%
15:00 +31°C° 0 mm 3 m/S 745 mmHg 54%
16:00 +31°C° 0 mm 3 m/S 745 mmHg 56%
17:00 +30°C° 0 mm 4 m/S 746 mmHg 58%
18:00 +29°C° 0 mm 4 m/S 746 mmHg 61%
19:00 +27°C° 0 mm 4 m/S 746 mmHg 64%
20:00 +25°C° 0 mm 4 m/S 746 mmHg 68%
21:00 +25°C° 0 mm 4 m/S 746 mmHg 68%
22:00 +23°C° 0 mm 4 m/S 746 mmHg 69%
23:00 +22°C° 0 mm 4 m/S 745 mmHg 70%

Morgen, 22 Juni, Dienstag

Zeit Temperatur Niederschläge Wind Luftdruck Luftfeuchtigkeit
00:00 +22°C° 0 mm 4 m/S 745 mmHg 70%
01:00 +21°C° 0 mm 4 m/S 745 mmHg 71%
02:00 +21°C° 0 mm 4 m/S 745 mmHg 72%
03:00 +20°C° 0 mm 4 m/S 745 mmHg 72%
04:00 +20°C° 0 mm 4 m/S 745 mmHg 73%
05:00 +20°C° 0 mm 4 m/S 745 mmHg 73%
06:00 +21°C° 0 mm 4 m/S 745 mmHg 68%
07:00 +23°C° 0 mm 5 m/S 745 mmHg 63%
08:00 +25°C° 0 mm 5 m/S 746 mmHg 58%
09:00 +26°C° 0 mm 5 m/S 746 mmHg 55%
10:00 +28°C° 0 mm 5 m/S 746 mmHg 53%
11:00 +29°C° 0 mm 5 m/S 746 mmHg 50%
12:00 +30°C° 0 mm 5 m/S 746 mmHg 48%
13:00 +30°C° 0 mm 5 m/S 746 mmHg 47%
14:00 +32°C° 0 mm 5 m/S 746 mmHg 45%
15:00 +32°C° 0 mm 5 m/S 746 mmHg 47%
16:00 +30°C° 0 mm 5 m/S 746 mmHg 48%
17:00 +30°C° 0 mm 4 m/S 746 mmHg 50%
18:00 +28°C° 0 mm 4 m/S 746 mmHg 55%
19:00 +27°C° 0 mm 3 m/S 746 mmHg 60%
20:00 +25°C° 0 mm 3 m/S 746 mmHg 65%
21:00 +24°C° 0 mm 2 m/S 746 mmHg 66%
22:00 +24°C° 0 mm 2 m/S 746 mmHg 68%
23:00 +23°C° 0 mm 1 m/S 746 mmHg 69%

übermorgen, 23 Juni, Mittwoch

Zeit Temperatur Niederschläge Wind Luftdruck Luftfeuchtigkeit
00:00 +23°C° 0 mm 2 m/S 746 mmHg 71%
01:00 +23°C° 0 mm 2 m/S 746 mmHg 72%
02:00 +21°C° 0 mm 2 m/S 746 mmHg 74%
03:00 +21°C° 0 mm 2 m/S 746 mmHg 77%
04:00 +21°C° 0 mm 2 m/S 746 mmHg 81%
05:00 +21°C° 0 mm 2 m/S 746 mmHg 85%
06:00 +23°C° 0 mm 2 m/S 746 mmHg 80%
07:00 +24°C° 0 mm 2 m/S 746 mmHg 76%
08:00 +25°C° 0 mm 2 m/S 746 mmHg 71%
09:00 +27°C° 0 mm 3 m/S 746 mmHg 67%
10:00 +28°C° 0 mm 3 m/S 747 mmHg 62%
11:00 +30°C° 0 mm 3 m/S 747 mmHg 58%
12:00 +32°C° 0 mm 4 m/S 747 mmHg 54%
13:00 +33°C° 0 mm 4 m/S 747 mmHg 50%
14:00 +34°C° 0 mm 5 m/S 747 mmHg 46%
15:00 +33°C° 0 mm 4 m/S 747 mmHg 49%
16:00 +33°C° 0 mm 4 m/S 747 mmHg 52%
17:00 +32°C° 0 mm 4 m/S 747 mmHg 55%
18:00 +30°C° 0.2 mm 3 m/S 747 mmHg 60%
19:00 +28°C° 0.2 mm 2 m/S 747 mmHg 64%
20:00 +27°C° 0.2 mm 2 m/S 747 mmHg 69%
21:00 +26°C° 0.2 mm 2 m/S 747 mmHg 70%
22:00 +25°C° 0.2 mm 1 m/S 747 mmHg 72%
23:00 +25°C° 0.2 mm 1 m/S 748 mmHg 73%

24 Juni, Donnerstag

Zeit Temperatur Niederschläge Wind Luftdruck Luftfeuchtigkeit
00:00 +24°C° 0 mm 2 m/S 747 mmHg 75%
01:00 +24°C° 0 mm 2 m/S 747 mmHg 77%
02:00 +24°C° 0 mm 3 m/S 747 mmHg 78%
03:00 +22°C° 0 mm 3 m/S 747 mmHg 79%
04:00 +22°C° 0 mm 3 m/S 747 mmHg 80%
05:00 +22°C° 0 mm 4 m/S 747 mmHg 81%
06:00 +25°C° 0 mm 4 m/S 747 mmHg 75%
07:00 +26°C° 0 mm 5 m/S 747 mmHg 70%
08:00 +28°C° 0 mm 5 m/S 747 mmHg 65%
09:00 +29°C° 0 mm 5 m/S 747 mmHg 60%
10:00 +30°C° 0 mm 4 m/S 747 mmHg 55%
11:00 +32°C° 0 mm 4 m/S 747 mmHg 50%
12:00 +33°C° 0 mm 4 m/S 747 mmHg 49%
13:00 +33°C° 0 mm 5 m/S 747 mmHg 48%
14:00 +34°C° 0 mm 6 m/S 747 mmHg 47%
15:00 +33°C° 0.1 mm 5 m/S 746 mmHg 51%
16:00 +33°C° 0.1 mm 4 m/S 746 mmHg 56%
17:00 +32°C° 0.1 mm 4 m/S 746 mmHg 60%
18:00 +29°C° 1.4 mm 4 m/S 746 mmHg 69%
19:00 +27°C° 1.4 mm 4 m/S 746 mmHg 77%
20:00 +25°C° 1.4 mm 5 m/S 746 mmHg 86%
21:00 +23°C° 3.2 mm 4 m/S 747 mmHg 87%
22:00 +22°C° 3.2 mm 4 m/S 747 mmHg 89%
23:00 +22°C° 3.2 mm 4 m/S 747 mmHg 90%

25 Juni, Freitag

Zeit Temperatur Niederschläge Wind Luftdruck Luftfeuchtigkeit
00:00 +22°C° 0 mm 4 m/S 747 mmHg 91%
01:00 +21°C° 0 mm 3 m/S 747 mmHg 91%
02:00 +21°C° 0 mm 3 m/S 747 mmHg 92%
03:00 +21°C° 0 mm 3 m/S 747 mmHg 91%
04:00 +21°C° 0 mm 2 m/S 747 mmHg 91%
05:00 +21°C° 0 mm 2 m/S 747 mmHg 90%
06:00 +24°C° 0 mm 2 m/S 747 mmHg 83%
07:00 +26°C° 0 mm 2 m/S 747 mmHg 76%
08:00 +27°C° 0 mm 2 m/S 747 mmHg 69%
09:00 +28°C° 0 mm 3 m/S 747 mmHg 66%
10:00 +29°C° 0 mm 3 m/S 747 mmHg 64%
11:00 +30°C° 0 mm 4 m/S 747 mmHg 62%
12:00 +32°C° 0 mm 4 m/S 747 mmHg 58%
13:00 +32°C° 0 mm 4 m/S 747 mmHg 55%
14:00 +33°C° 0 mm 4 m/S 746 mmHg 51%
15:00 +33°C° 0 mm 4 m/S 746 mmHg 53%
16:00 +33°C° 0 mm 4 m/S 746 mmHg 55%
17:00 +33°C° 0 mm 4 m/S 746 mmHg 56%
18:00 +30°C° 0.1 mm 4 m/S 746 mmHg 64%
19:00 +28°C° 0.1 mm 4 m/S 746 mmHg 71%
20:00 +26°C° 0.1 mm 3 m/S 746 mmHg 79%
21:00 +26°C° 0 mm 3 m/S 746 mmHg 81%
22:00 +25°C° 0 mm 3 m/S 746 mmHg 84%
23:00 +24°C° 0 mm 3 m/S 745 mmHg 87%

26 Juni, Samstag

Zeit Temperatur Niederschläge Wind Luftdruck Luftfeuchtigkeit
00:00 +24°C° 0 mm 3 m/S 745 mmHg 88%
01:00 +24°C° 0 mm 3 m/S 745 mmHg 89%
02:00 +22°C° 0 mm 3 m/S 745 mmHg 89%
03:00 +22°C° 0.1 mm 3 m/S 745 mmHg 88%
04:00 +22°C° 0.1 mm 3 m/S 746 mmHg 87%
05:00 +23°C° 0.1 mm 2 m/S 746 mmHg 86%
06:00 +25°C° 0 mm 3 m/S 746 mmHg 79%
07:00 +27°C° 0 mm 3 m/S 746 mmHg 72%
08:00 +28°C° 0 mm 3 m/S 746 mmHg 65%
09:00 +30°C° 0 mm 3 m/S 746 mmHg 61%
10:00 +31°C° 0 mm 3 m/S 746 mmHg 56%
11:00 +33°C° 0 mm 4 m/S 746 mmHg 52%
12:00 +34°C° 0 mm 4 m/S 746 mmHg 50%
13:00 +34°C° 0 mm 4 m/S 746 mmHg 49%
14:00 +35°C° 0 mm 4 m/S 746 mmHg 47%
15:00 +34°C° 0 mm 4 m/S 745 mmHg 49%
16:00 +34°C° 0 mm 4 m/S 745 mmHg 52%
17:00 +34°C° 0 mm 4 m/S 744 mmHg 54%
18:00 +30°C° 0.4 mm 5 m/S 745 mmHg 62%
19:00 +27°C° 0.4 mm 5 m/S 745 mmHg 70%
20:00 +23°C° 0.4 mm 6 m/S 745 mmHg 78%
21:00 +22°C° 1.1 mm 5 m/S 745 mmHg 83%
22:00 +22°C° 1.1 mm 4 m/S 745 mmHg 87%
23:00 +21°C° 1.1 mm 2 m/S 746 mmHg 92%
Mehr zeigen

Wir brauchen deine Erlaubnis

Meteoprog und unser Service Anbieter werden persönliche Daten aufbewahren, so wie Cookies, Geräte Bezeichnung oder ähnliche Technologien von deinem Gerät und Prozess, so wie Persönliche Daten Inhalte und Werbungen, genauso wie social Media und den Verkehr zu analysieren.

  • Aufbewahrung und/oder Zugang zu deiner Geräte Informationen.

    Cookies, Geräte Bezeichnung oder andere Informationen, können aufbewahrt oder Zugang zu deinem Gerät erhalten, für den Grund, der oben angegeben wird.

  • Personalisierte Werbung und Inhalte, Messungen, Einblick in das Publikum und Produkt Entwicklung.

    Werbungen und Inhalte können personalisiert werden, basierend auf ein Profil. Mehr Daten können besser personalisierte Werbungen und Inhalte hinzufügen. Werbung und Inhalte können gezeigt und gemessen werden. Einblicke über das Publikum, welche die Werbung gesehen haben und den Inhalt, können abgeleitet werden. So wie Daten können genutzt werden, um es zu verbessern oder die Benutzer Erfahrung zu verbessern das System und die Software.

Wenn du “Ich stimme zu” klickst, erlaubst du uns, die Cookies zu benutzen die Geräte Bezeichnung, den Web oder ähnliche Technologien zu benutzen. Deine Settings, können in deinem Gerät bei deinem Browser geändert werden.

Für den bestimmten Zweck, berechtigten Interessen beruhen darauf, mehr als auf den Inhalt. Du kannst mehr darüber in unseren Privaten und Cookie Politik lesen.